[[{"header":{"parameterUnit":"m.s-1","parameterCategory":1,"la1":30.2991,"la2":30.254,"lo1":-89.0895,"lo2":-89.0444,"dy":0.0017,"dx":0.0017,"nx":28,"ny":28,"refTime":"2025-05-25T03:00:00:Z","depth":0,"parameterNumber":2,"parameterNumberName":"U-component_of_WINDS"},"data":[0,0,0,0,0,0,0,0,0,0,0,0,0,0,0,0,0,0,0,0,0,0,0,0,0,0,0,0,0,0,0,0,0,0,0,0,0,0,0,0,0,0,0,0,0,0,0,0,0,0,0,0,0,0,0,0,0,0,-0.2787,-0.2787,0,-0.2793,-0.2793,-0.2793,-0.2812,-0.2812,-0.2813,-0.2813,-0.2818,-0.2818,-0.2818,0,0,0,0,0,0,0,0,0,0,0,0,0,-0.2788,-0.2788,-0.2787,-0.2787,-0.2787,-0.2793,-0.2793,-0.2793,-0.2812,-0.2813,-0.2813,-0.2813,-0.2818,-0.2818,-0.2818,0,0,0,0,0,0,0,0,0,0,0,0,0,-0.2791,-0.2788,-0.2787,-0.2797,-0.2798,-0.2793,-0.2793,-0.2794,-0.2812,-0.2813,-0.2813,-0.2814,-0.2818,-0.2818,-0.2818,-0.2803,0,0,-0.2816,-0.2816,0,0,0,0,0,0,0,0,-0.279,-0.279,-0.2795,-0.2796,-0.2797,-0.2803,-0.2796,-0.2797,-0.2812,-0.2806,-0.2813,-0.2814,-0.2812,-0.2812,-0.2812,-0.2803,-0.2803,-0.2816,-0.2816,-0.2816,-0.2816,0,0,0,0,0,0,0,-0.279,-0.279,-0.2789,-0.2795,-0.2796,-0.2801,-0.2802,-0.2796,-0.2806,-0.2807,-0.2808,-0.2809,-0.2813,-0.2813,-0.2813,-0.2803,-0.2816,-0.2816,-0.2816,-0.2816,-0.2783,-0.2782,0,0,0,0,0,0,-0.2789,-0.279,-0.2789,-0.2789,-0.2795,-0.28,-0.2801,-0.28,-0.2806,-0.2807,-0.2808,-0.281,-0.2813,-0.2813,-0.2813,-0.2796,-0.2816,-0.2816,-0.2815,-0.2783,-0.2783,-0.2782,0,0,0,0,0,0,-0.2789,-0.2789,-0.2789,-0.279,-0.279,-0.2799,-0.2798,-0.28,-0.28,-0.2807,-0.2809,-0.2806,-0.2813,-0.2813,-0.2805,-0.2796,-0.2815,-0.2815,-0.2784,-0.2783,-0.2782,-0.2762,0,0,0,0,0,0,-0.2789,-0.2788,-0.2783,-0.279,-0.279,-0.2781,-0.2798,-0.28,-0.2799,-0.2801,-0.2806,-0.2807,-0.2814,-0.2806,-0.2805,-0.2796,-0.2815,-0.2785,-0.2784,-0.2783,-0.2763,-0.276,-0.2758,0,0,0,0,0,-0.2789,-0.2777,-0.2783,-0.2783,-0.2784,-0.2781,-0.2781,-0.279,-0.2798,-0.2793,-0.2798,-0.2807,-0.2798,-0.2805,-0.2804,-0.2795,-0.2786,-0.2784,-0.2783,-0.2764,-0.2761,-0.2758,0,0,0,0,0,0,-0.2768,-0.2778,-0.2785,-0.2774,-0.2777,-0.2784,-0.2777,-0.2786,-0.2785,-0.2787,-0.2797,-0.2798,-0.2789,-0.2791,-0.2799,-0.2781,-0.2793,-0.2791,-0.278,-0.2776,-0.2773,-0.2772,-0.2814,0,0,0,0,0,-0.2762,-0.2759,-0.2768,-0.2758,-0.2759,-0.2768,-0.2767,-0.2774,-0.2776,-0.2777,-0.2782,-0.2783,-0.2781,-0.2779,-0.2777,-0.2764,-0.2765,-0.2758,-0.2755,-0.2752,-0.275,-0.2743,-0.274,-0.2777,-0.2777,-0.2777,0,0,-0.275,-0.2755,-0.2752,-0.2754,-0.2757,-0.2753,-0.2769,-0.2764,-0.2761,-0.2776,-0.2769,-0.2773,-0.2775,-0.2765,-0.276,-0.2766,-0.274,-0.275,-0.2749,-0.2748,-0.2741,-0.2738,-0.2735,-0.2776,-0.2776,-0.2777,0,0,-0.2726,-0.273,-0.2722,-0.2724,-0.2729,-0.2735,-0.2733,-0.2739,-0.2742,-0.2736,-0.2747,-0.2744,-0.2739,-0.2741,-0.2741,-0.2718,-0.2726,-0.2718,-0.2702,-0.2695,-0.2692,-0.269,-0.2681,-0.2678,-0.2716,-0.2716,-0.2716,0,-0.2709,-0.2705,-0.2716,-0.2711,-0.2711,-0.2726,-0.2718,-0.272,-0.2723,-0.2722,-0.273,-0.2725,-0.2728,-0.2718,-0.2712,-0.2712,-0.271,-0.2716,-0.2692,-0.2689,-0.2687,-0.2679,-0.2676,-0.2715,-0.2715,-0.2715,-0.2715,0,-0.2685,-0.2681,-0.2675,-0.2678,-0.2678,-0.2671,-0.2681,-0.2679,-0.2687,-0.2692,-0.2685,-0.2689,-0.2688,-0.2687,-0.2693,-0.2678,-0.2681,-0.269,-0.2702,-0.2682,-0.2674,-0.2671,-0.2713,-0.2713,-0.2714,-0.2714,0,0,-0.2646,-0.2657,-0.2654,-0.2655,-0.2662,-0.2659,-0.2653,-0.2653,-0.2651,-0.2654,-0.2648,-0.2645,-0.2653,-0.2653,-0.2661,-0.2655,-0.2636,-0.2664,-0.2665,-0.2658,-0.2618,-0.261,-0.2606,-0.2642,-0.2642,-0.2641,-0.2617,0,-0.2622,-0.2613,-0.2623,-0.2612,-0.2608,-0.2623,-0.2618,-0.2621,-0.2626,-0.2624,-0.263,-0.2627,-0.2639,-0.2639,-0.2634,-0.2639,-0.2628,-0.2641,-0.2636,-0.2636,-0.2634,-0.2603,-0.2594,-0.2571,-0.2615,-0.2614,-0.2614,0,-0.2592,-0.2594,-0.2582,-0.259,-0.2589,-0.2584,-0.2585,-0.2583,-0.2587,-0.2591,-0.2592,-0.2601,-0.2595,-0.2609,-0.2601,-0.2609,-0.2608,-0.2611,-0.261,-0.2608,-0.2622,-0.2599,-0.2565,-0.2561,-0.2609,-0.261,-0.261,0,-0.2564,-0.2563,-0.2556,-0.2557,-0.2566,-0.2562,-0.2565,-0.257,-0.257,-0.2571,-0.257,-0.2571,-0.257,-0.257,-0.2579,-0.2588,-0.2569,-0.2583,-0.2572,-0.2571,-0.2566,-0.2566,-0.2529,-0.2567,-0.2567,-0.2568,-0.2568,0,-0.2535,-0.2527,-0.2543,-0.2538,-0.253,-0.2542,-0.2533,-0.2538,-0.2542,-0.2539,-0.2552,-0.2548,-0.2561,-0.2558,-0.2565,-0.2557,-0.2557,-0.2559,-0.2561,-0.2557,-0.2557,-0.2555,-0.2557,-0.2567,-0.2567,-0.2567,-0.2567,0,-0.2501,-0.2511,-0.2504,-0.2514,-0.2516,-0.2509,-0.2517,-0.2513,-0.252,-0.2515,-0.2514,-0.2525,-0.2522,-0.2532,-0.2531,-0.2536,-0.2523,-0.2528,-0.2522,-0.2523,-0.251,-0.2511,-0.247,-0.2465,-0.2508,-0.2508,-0.2507,0,-0.2481,-0.2475,-0.2484,-0.2483,-0.2486,-0.2484,-0.2484,-0.2497,-0.2496,-0.25,-0.2496,-0.2495,-0.2494,-0.249,-0.2497,-0.2496,-0.25,-0.2486,-0.25,-0.2496,-0.2498,-0.2498,-0.2497,-0.2483,-0.2482,-0.2482,-0.2481,0,-0.2444,-0.245,-0.245,-0.2451,-0.2451,-0.2453,-0.2455,-0.2454,-0.2467,-0.2466,-0.2464,-0.2464,-0.2463,-0.2462,-0.2463,-0.2466,-0.2475,-0.2477,-0.2474,-0.247,-0.2466,-0.2466,-0.2512,-0.2478,-0.2478,-0.2478,-0.2479,-0.2479,-0.2416,-0.2411,-0.2417,-0.2417,-0.242,-0.2422,-0.2419,-0.2426,-0.2425,-0.2426,-0.2434,-0.243,-0.2435,-0.2437,-0.244,-0.2437,-0.2443,-0.2439,-0.2438,-0.2436,-0.2434,-0.2468,-0.2437,-0.2437,-0.2437,-0.2438,-0.2438,0,-0.2379,-0.2384,-0.2383,-0.2387,-0.2386,-0.2397,-0.2401,-0.2399,-0.2396,-0.24,-0.24,-0.2398,-0.2397,-0.2404,-0.2404,-0.24,-0.2405,-0.24,-0.2399,-0.2399,-0.2428,-0.243,-0.2396,-0.2396,-0.2396,-0.2396,-0.2396,-0.2396,-0.236,-0.2352,-0.2359,-0.2354,-0.2359,-0.2356,-0.2357,-0.2359,-0.2362,-0.2359,-0.2359,-0.2364,-0.237,-0.237,-0.2369,-0.2372,-0.237,-0.2363,-0.2367,-0.2393,-0.2397,-0.2401,-0.2403,-0.2363,-0.2363,-0.2338,-0.2338,-0.2338]},{"header":{"parameterUnit":"m.s-1","parameterCategory":1,"la1":30.2991,"la2":30.254,"lo1":-89.0895,"lo2":-89.0444,"dy":0.0017,"dx":0.0017,"nx":28,"ny":28,"refTime":"2025-05-25T03:00:00:Z","depth":0,"parameterNumber":3,"parameterNumberName":"V-component_of_WINDS"},"data":[0,0,0,0,0,0,0,0,0,0,0,0,0,0,0,0,0,0,0,0,0,0,0,0,0,0,0,0,0,0,0,0,0,0,0,0,0,0,0,0,0,0,0,0,0,0,0,0,0,0,0,0,0,0,0,0,0,0,4.5509,4.5509,0,4.5552,4.5552,4.5553,4.5507,4.5506,4.5504,4.5502,4.5544,4.5547,4.5549,0,0,0,0,0,0,0,0,0,0,0,0,0,4.5387,4.5389,4.5509,4.5509,4.551,4.5552,4.5552,4.5553,4.5508,4.5506,4.5504,4.5502,4.5543,4.5546,4.555,0,0,0,0,0,0,0,0,0,0,0,0,0,4.5436,4.539,4.5509,4.5492,4.5491,4.5551,4.5552,4.5553,4.5508,4.5506,4.5503,4.5501,4.5542,4.5546,4.555,4.5628,0,0,4.5563,4.5564,0,0,0,0,0,0,0,0,4.5433,4.544,4.5494,4.5494,4.5493,4.5522,4.5524,4.5578,4.5509,4.5502,4.5502,4.5499,4.5539,4.5543,4.5556,4.5629,4.5631,4.5563,4.5566,4.5567,4.5568,0,0,0,0,0,0,0,4.543,4.5438,4.5526,4.5495,4.5494,4.5483,4.5487,4.5534,4.5534,4.5502,4.5499,4.5505,4.5538,4.5553,4.5557,4.5632,4.5563,4.5567,4.5569,4.5571,4.5772,4.5775,0,0,0,0,0,0,4.5428,4.5436,4.5524,4.5527,4.5456,4.5487,4.5492,4.5515,4.5534,4.5534,4.5507,4.5503,4.5547,4.5552,4.5558,4.5651,4.5567,4.5571,4.5573,4.5769,4.5773,4.5776,0,0,0,0,0,0,4.5426,4.5437,4.5522,4.548,4.549,4.5492,4.5518,4.5517,4.5532,4.5537,4.5537,4.5523,4.5545,4.5553,4.5611,4.5652,4.5573,4.5577,4.5766,4.577,4.5774,4.5837,0,0,0,0,0,0,4.5423,4.5436,4.5465,4.5481,4.5493,4.5575,4.5521,4.552,4.554,4.5534,4.5552,4.5552,4.5544,4.5605,4.5615,4.5656,4.558,4.5762,4.5768,4.5773,4.5831,4.5843,4.5853,0,0,0,0,0,4.5418,4.548,4.5467,4.5478,4.553,4.5577,4.5584,4.5574,4.5543,4.5573,4.5576,4.5551,4.5646,4.5612,4.5622,4.5665,4.576,4.5766,4.5773,4.5826,4.584,4.5852,0,0,0,0,0,0,4.5468,4.5482,4.5468,4.5537,4.5557,4.557,4.5606,4.5589,4.5616,4.561,4.5596,4.56,4.5663,4.567,4.5631,4.5742,4.5698,4.5707,4.5735,4.5748,4.5759,4.5756,4.5583,0,0,0,0,0,4.5487,4.5525,4.5535,4.5595,4.5606,4.5605,4.5625,4.5616,4.5635,4.5643,4.565,4.567,4.5704,4.5727,4.5758,4.5832,4.5836,4.5867,4.5878,4.5887,4.5895,4.5936,4.595,4.5797,4.5797,4.5797,0,0,4.5526,4.5539,4.5564,4.5606,4.562,4.5659,4.5612,4.5655,4.5684,4.5649,4.5705,4.5712,4.5732,4.58,4.5829,4.5807,4.5938,4.5895,4.5902,4.5905,4.5944,4.5958,4.5971,4.5802,4.5801,4.58,0,0,4.5619,4.5632,4.5684,4.57,4.5722,4.5722,4.5734,4.5751,4.5754,4.5811,4.5786,4.582,4.5879,4.5895,4.5911,4.6012,4.5991,4.6023,4.6079,4.6119,4.6131,4.6142,4.6179,4.6192,4.6031,4.6031,4.6031,0,4.5665,4.5724,4.5713,4.5759,4.5779,4.575,4.5803,4.5818,4.585,4.5864,4.5839,4.5914,4.5925,4.5996,4.6021,4.6035,4.6049,4.602,4.6131,4.6141,4.6151,4.6186,4.62,4.6035,4.6034,4.6034,4.6033,0,4.578,4.5821,4.5861,4.5893,4.5917,4.5966,4.5963,4.5989,4.5978,4.598,4.6038,4.6052,4.6086,4.6103,4.6092,4.6173,4.6159,4.6133,4.6088,4.6169,4.6202,4.6215,4.604,4.6039,4.6037,4.6037,0,0,4.5903,4.5931,4.5945,4.596,4.5984,4.6016,4.6064,4.6099,4.6122,4.6145,4.6185,4.6237,4.6213,4.6232,4.6223,4.6258,4.6339,4.6227,4.6228,4.6248,4.643,4.645,4.6466,4.6325,4.6327,4.6329,4.6429,0,4.5996,4.6081,4.6074,4.6153,4.6192,4.6167,4.6209,4.6228,4.6232,4.6265,4.6268,4.6306,4.6272,4.6283,4.6317,4.6322,4.6375,4.6314,4.6363,4.6364,4.6358,4.6482,4.6503,4.6596,4.6441,4.6443,4.6445,0,4.6116,4.6145,4.6229,4.6249,4.6265,4.6303,4.6335,4.6367,4.6389,4.6389,4.6411,4.6397,4.6446,4.6401,4.6468,4.6427,4.6447,4.6453,4.6456,4.646,4.641,4.649,4.6625,4.6639,4.6465,4.6463,4.6462,0,4.6198,4.6258,4.6317,4.633,4.6354,4.6382,4.6393,4.6412,4.6435,4.6463,4.6477,4.6511,4.6529,4.6555,4.6551,4.6518,4.6621,4.6575,4.6622,4.6623,4.6644,4.6643,4.6785,4.6657,4.6657,4.6657,4.6656,0,4.6303,4.6356,4.6354,4.639,4.6449,4.644,4.6499,4.6506,4.6524,4.6562,4.6541,4.6577,4.6568,4.6604,4.66,4.6658,4.6666,4.6668,4.6666,4.667,4.667,4.6682,4.6676,4.666,4.6659,4.6659,4.6658,0,4.6404,4.6405,4.6468,4.6486,4.6492,4.6535,4.655,4.6585,4.6587,4.6635,4.6646,4.665,4.6691,4.6689,4.6735,4.6733,4.6804,4.6795,4.6797,4.6795,4.6843,4.6839,4.6998,4.7019,4.6877,4.6878,4.688,0,4.6471,4.6511,4.6535,4.6559,4.6572,4.6611,4.6634,4.6628,4.6653,4.6682,4.6713,4.6752,4.6783,4.685,4.6857,4.6892,4.6884,4.6937,4.6889,4.6892,4.6886,4.6883,4.6888,4.6947,4.6948,4.695,4.6951,0,4.659,4.6589,4.6623,4.6659,4.6687,4.6714,4.6739,4.676,4.6757,4.6786,4.6828,4.6852,4.69,4.694,4.6974,4.6985,4.6968,4.6966,4.6979,4.6983,4.6983,4.6985,4.6823,4.6962,4.6961,4.696,4.696,4.6959,4.6676,4.6711,4.6734,4.6773,4.6792,4.6816,4.685,4.6858,4.6893,4.6932,4.6927,4.6974,4.6996,4.7041,4.7056,4.7093,4.7074,4.7093,4.7098,4.7103,4.7109,4.6977,4.71,4.7099,4.7099,4.7099,4.7098,0,4.6794,4.6808,4.6845,4.6881,4.6913,4.6895,4.6922,4.6949,4.6992,4.7014,4.7046,4.7095,4.7134,4.7146,4.7183,4.7211,4.7204,4.7221,4.7219,4.7222,4.7123,4.7108,4.7226,4.7226,4.7226,4.7226,4.7226,4.7226,4.6859,4.6918,4.6921,4.6989,4.7003,4.705,4.7067,4.709,4.7108,4.7165,4.7197,4.7205,4.7223,4.7263,4.7298,4.73,4.7315,4.7336,4.7335,4.7242,4.7229,4.7217,4.7203,4.7339,4.7339,4.7431,4.7432,4.7433]}]]